Tracking 17842 objects as of 30-August-2016
HD Live streaming from Space Station
objects crossing your sky now

GLOBALSTAR M003

Track GLOBALSTAR M003 now!
10-day predictions
GLOBALSTAR M003 is classified as:


NORAD ID: 25165
Int'l Code: 1998-008D
Perigee: 1,630.6 km
Apogee: 1,640.1 km
Inclination: 52.0 °
Period: 118.8 minutes
Semi major axis: 8006 km
RCS: 2.2435 m2 (large)
Launch date: February 14, 1998
Source: Globalstar (GLOB)
Launch site: AIR FORCE EASTERN TEST RANGE (AFETR)
Your satellite tracking list
Your tracking list is empty





NASA's NSSDC Master Catalog

Two Line Element Set (TLE):
1 25165U 98008D   16242.56830391 -.00000010  00000-0  84792-3 0  9999
2 25165  51.9708  69.7970 0005963 305.0108  89.2553 12.11861857843657
Source of the keplerian elements: AFSPC

N2YO: 454